EW9081 Weather Reports


time (UTC)temp
C
wind
direction
speed
KPH
gust
KPH
rain 1hr
cm
rain 24hr
cm
rain mn
cm
humidity
%
barometer
mb
20260906023758 15 209 3.2 6.4 0.00 0.38 0.38 84 1015.5
20260906023301 15 213 3.2 6.4 0.00 0.38 0.38 84 1015.6
20260906023257 15 215 3.2 6.4 0.00 0.38 0.38 84 1015.5
20260906022255 15 225 3.2 6.4 0.00 0.38 0.38 84 1015.6
20260906021754 16 232 1.6 6.4 0.00 0.38 0.38 84 1015.6
20260906021255 16 244 1.6 6.4 0.00 0.38 0.38 84 1015.6
20260906020757 16 242 1.6 6.4 0.00 0.38 0.38 83 1015.6
20260906020753 16 232 1.6 6.4 0.00 0.38 0.38 83 1015.6
20260906015754 16 216 3.2 6.4 0.00 0.38 0.38 82 1015.7
20260906015251 16 229 1.6 4.8 0.00 0.38 0.38 82 1015.7
20260906014751 16 231 1.6 4.8 0.00 0.38 0.38 81 1015.7
20260906014250 16 223 3.2 8.0 0.00 0.38 0.38 81 1015.6
20260906013749 17 244 3.2 8.0 0.00 0.38 0.38 80 1015.6
20260906013249 17 210 3.2 6.4 0.00 0.38 0.38 79 1015.6
20260906012748 17 221 1.6 4.8 0.00 0.38 0.38 78 1015.6
20260906012249 17 219 1.6 6.4 0.00 0.38 0.38 79 1015.6
20260906011748 17 208 3.2 9.7 0.00 0.38 0.38 79 1015.6
20260906011249 17 291 3.2 9.7 0.00 0.38 0.38 78 1015.5
20260906010748 17 315 1.6 8.0 0.00 0.38 0.38 79 1015.5
20260906010248 17 244 1.6 8.0 0.00 0.38 0.38 79 1015.4
20260906005749 17 259 1.6 8.0 0.00 0.38 0.38 79 1015.4
20260906005249 17 257 1.6 6.4 0.00 0.38 0.38 79 1015.4
20260906004747 17 258 1.6 6.4 0.00 0.38 0.38 79 1015.4
20260906004248 17 239 1.6 6.4 0.00 0.38 0.38 79 1015.4
20260906003747 17 240 1.6 6.4 0.00 0.38 0.38 79 1015.4
20260906003248 17 267 1.6 4.8 0.00 0.38 0.38 78 1015.4
20260906002744 17 257 1.6 4.8 0.00 0.38 0.38 76 1015.5
20260906002246 18 246 1.6 4.8 0.00 0.38 0.38 76 1015.6
20260906001744 18 271 1.6 4.8 0.00 0.38 0.38 76 1015.6
20260906001244 18 285 1.6 4.8 0.00 0.38 0.38 75 1015.6
20260906000744 18 267 3.2 11.3 0.00 0.38 0.38 75 1015.6
20260906000248 18 285 3.2 11.3 0.00 0.38 0.38 75 1015.6
20260905235746 18 310 3.2 6.4 0.00 0.38 0.38 74 1015.5
20260905235246 18 250 3.2 8.0 0.00 0.38 0.38 77 1015.5
20260905234752 18 269 3.2 4.8 0.00 0.41 0.38 73 1015.5
20260905234744 18 270 3.2 8.0 0.00 0.38 0.38 73 1015.5
20260905234246 18 306 1.6 4.8 0.00 0.38 0.38 73 1015.5
20260905233244 18 295 3.2 9.7 0.00 0.41 0.38 75 1015.5
20260905232744 18 273 1.6 9.7 0.00 0.41 0.38 76 1015.6
20260905232244 18 281 1.6 6.4 0.00 0.41 0.38 77 1015.5
20260905231745 18 315 1.6 6.4 0.00 0.41 0.38 75 1015.6
20260905231246 18 344 1.6 6.4 0.00 0.41 0.38 77 1015.7
20260905230745 18 288 1.6 6.4 0.00 0.43 0.38 78 1015.7
20260905230244 18 307 1.6 6.4 0.00 0.43 0.38 80 1015.7
20260905225744 17 248 1.6 8.0 0.00 0.43 0.38 79 1015.8
20260905225244 18 302 1.6 8.0 0.00 0.43 0.38 80 1015.8
20260905224744 18 216 1.6 6.4 0.00 0.43 0.38 77 1015.9
20260905224245 18 306 3.2 6.4 0.00 0.43 0.38 78 1015.9
20260905223744 18 288 1.6 6.4 0.00 0.43 0.38 78 1015.9
20260905223245 18 285 3.2 6.4 0.00 0.43 0.38 79 1016.0
20260905222744 18 306 3.2 8.0 0.00 0.43 0.38 82 1016.1
20260905222243 18 198 3.2 8.0 0.00 0.43 0.38 82 1016.1
20260905221743 18 5 3.2 6.4 0.00 0.43 0.38 82 1016.1
20260905221243 17 297 3.2 8.0 0.00 0.43 0.38 79 1016.1
20260905220742 17 237 1.6 8.0 0.00 0.43 0.38 85 1016.2
20260905220248 17 302 1.6 8.0 0.00 0.43 0.38 82 1016.3
20260905220242 17 278 3.2 8.0 0.00 0.43 0.38 81 1016.2
20260905215243 17 312 1.6 6.4 0.05 0.43 0.38 84 1016.3
20260905214746 17 287 1.6 6.4 0.10 0.43 0.38 86 1016.4
20260905214741 17 238 1.6 6.4 0.08 0.43 0.38 85 1016.4
20260905213740 16 306 1.6 4.8 0.13 0.43 0.38 89 1016.4
20260905213238 16 290 1.6 4.8 0.18 0.43 0.38 88 1016.4
20260905212738 16 300 1.6 4.8 0.23 0.43 0.38 88 1016.4
20260905212238 16 296 0.0 4.8 0.30 0.43 0.38 89 1016.4
20260905211739 16 226 0.0 0.0 0.33 0.46 0.38 87 1016.4
20260905211236 16 221 0.0 0.0 0.36 0.46 0.38 88 1016.7
20260905210737 15 221 0.0 0.0 0.36 0.48 0.38 90 1016.7
20260905210236 15 221 0.0 0.0 0.36 0.48 0.38 89 1016.8
20260905205736 15 221 0.0 3.2 0.36 0.48 0.38 88 1016.8
20260905205240 15 221 0.0 3.2 0.28 0.41 0.30 87 1016.8
20260905205236 15 221 0.0 3.2 0.30 0.43 0.33 89 1016.8
20260905204240 15 221 1.6 4.8 0.23 0.36 0.28 86 1016.8
20260905204236 15 221 1.6 3.2 0.25 0.38 0.28 88 1016.8
20260905203237 16 221 1.6 4.8 0.18 0.30 0.20 86 1016.8
20260905202736 16 192 0.0 3.2 0.13 0.25 0.15 85 1016.8
20260905202236 16 187 0.0 3.2 0.05 0.18 0.08 83 1016.8
20260905201734 16 186 0.0 3.2 0.03 0.15 0.05 82 1016.8
20260905201234 16 168 0.0 3.2 0.00 0.13 0.03 80 1016.8
20260905200734 16 168 0.0 4.8 0.00 0.15 0.03 82 1016.8
20260905200234 16 167 0.0 4.8 0.00 0.15 0.03 83 1016.7
20260905195735 16 38 1.6 3.2 0.00 0.15 0.03 81 1016.7
20260905195239 16 355 3.2 6.4 0.00 0.18 0.03 83 1016.8
20260905195235 16 303 1.6 6.4 0.00 0.18 0.03 82 1016.8
20260905194234 16 24 3.2 6.4 0.00 0.18 0.03 83 1016.8
20260905193734 16 9 1.6 6.4 0.00 0.20 0.03 83 1016.8
20260905193235 16 20 1.6 11.3 0.00 0.20 0.03 83 1016.9
20260905192733 16 10 1.6 11.3 0.00 0.20 0.03 85 1017.0
20260905192238 16 28 1.6 11.3 0.00 0.20 0.03 83 1016.9
20260905191732 16 95 1.6 11.3 0.00 0.20 0.03 85 1017.0
20260905191232 16 288 1.6 6.4 0.00 0.20 0.03 84 1017.0
20260905190732 16 34 1.6 4.8 0.00 0.20 0.03 84 1017.0
20260905190232 16 155 1.6 6.4 0.00 0.20 0.03 87 1017.0
20260905185734 16 113 1.6 6.4 0.00 0.20 0.03 88 1017.1
20260905185232 15 19 1.6 6.4 0.00 0.20 0.03 90 1017.0
20260905184732 15 355 1.6 4.8 0.00 0.20 0.03 88 1017.1
20260905184233 15 65 1.6 4.8 0.00 0.20 0.03 87 1017.1
20260905183736 15 225 1.6 6.4 0.00 0.20 0.03 89 1017.1
20260905183731 15 275 1.6 6.4 0.00 0.20 0.03 89 1017.1
20260905183230 15 180 1.6 6.4 0.00 0.20 0.03 88 1017.1
20260905182230 15 44 1.6 6.4 0.00 0.20 0.03 90 1017.1
20260905181736 15 5 1.6 6.4 0.00 0.20 0.03 91 1017.1
20260905181730 15 148 0.0 3.2 0.00 0.20 0.03 91 1017.1
20260905181345 14 0 1.6 6.4 0.00 0.20 0.03 90 1017.2
20260905180842 14 9 1.6 4.8 0.00 0.20 0.03 90 1017.2
20260905180349 14 5 1.6 4.8 0.00 0.20 0.03 90 1017.2
20260905175231 14 25 1.6 8.0 0.00 0.20 0.03 90 1017.2
20260905174734 14 98 1.6 8.0 0.00 0.20 0.03 89 1017.1
20260905174728 14 150 1.6 8.0 0.00 0.20 0.03 89 1017.1
20260905173728 14 136 1.6 8.0 0.00 0.20 0.03 90 1017.0
20260905173228 15 181 1.6 14.5 0.00 0.20 0.03 90 1017.0
20260905172734 15 145 1.6 3.2 0.00 0.20 0.03 89 1017.0
20260905172730 15 143 1.6 14.5 0.00 0.20 0.03 90 1017.0
20260905171733 14 96 1.6 8.0 0.00 0.20 0.03 90 1017.0
20260905171729 14 150 1.6 6.4 0.00 0.20 0.03 90 1017.0
20260905171342 14 172 1.6 8.0 0.00 0.20 0.03 91 1017.0
20260905170841 14 128 1.6 8.0 0.00 0.20 0.03 92 1017.0
20260905170341 14 180 1.6 8.0 0.00 0.20 0.03 92 1016.9
20260905165229 14 169 1.6 6.4 0.00 0.20 0.03 91 1016.9
20260905164728 14 181 1.6 6.4 0.00 0.20 0.03 92 1017.0
20260905164231 14 184 1.6 8.0 0.00 0.20 0.03 91 1017.0
20260905164226 14 172 1.6 8.0 0.00 0.20 0.03 91 1017.0
20260905163840 14 178 1.6 9.7 0.00 0.20 0.03 92 1016.9
20260905162724 14 172 1.6 9.7 0.00 0.20 0.03 91 1016.9
20260905162226 14 175 1.6 6.4 0.00 0.20 0.03 91 1016.9
20260905161724 14 147 1.6 4.8 0.00 0.20 0.03 90 1016.9
20260905161221 14 184 1.6 4.8 0.00 0.20 0.03 91 1016.9
20260905160724 14 0 0.0 4.8 0.00 0.20 0.03 91 1016.9
20260905160222 14 231 0.0 3.2 0.00 0.20 0.03 91 1016.9
20260905155727 14 304 0.0 0.0 0.00 0.20 0.03 92 1016.9
20260905155723 14 304 0.0 0.0 0.00 0.20 0.03 92 1016.9
20260905154723 14 304 0.0 0.0 0.00 0.20 0.03 94 1016.9
20260905154222 13 318 0.0 0.0 0.00 0.20 0.03 94 1016.9
20260905153721 13 318 0.0 0.0 0.00 0.20 0.03 93 1016.9
20260905153222 13 268 0.0 0.0 0.00 0.20 0.03 94 1016.9
20260905152721 13 268 0.0 0.0 0.00 0.20 0.03 94 1016.9
20260905152221 13 268 0.0 0.0 0.00 0.20 0.03 94 1016.9
20260905151721 13 268 0.0 0.0 0.00 0.20 0.03 95 1016.9
20260905151221 13 256 0.0 0.0 0.00 0.20 0.03 95 1016.9
20260905150725 13 248 0.0 0.0 0.00 0.20 0.03 95 1016.8
20260905150721 13 252 0.0 0.0 0.00 0.20 0.03 95 1016.9
20260905145723 13 248 0.0 0.0 0.00 0.20 0.03 94 1016.9
20260905145221 13 247 0.0 0.0 0.00 0.20 0.03 94 1016.8
20260905144725 13 321 0.0 0.0 0.00 0.20 0.03 95 1016.8
20260905144720 13 249 0.0 0.0 0.00 0.20 0.03 95 1016.8
20260905144333 13 321 0.0 0.0 0.00 0.20 0.03 95 1016.8
20260905143219 13 321 0.0 0.0 0.00 0.20 0.03 95 1016.8
20260905142719 13 317 0.0 0.0 0.00 0.20 0.03 95 1016.8
20260905142220 13 317 0.0 0.0 0.03 0.20 0.03 95 1016.8
20260905141721 13 318 0.0 0.0 0.03 0.20 0.03 95 1016.8
20260905141221 13 318 0.0 0.0 0.03 0.20 0.03 95 1016.7
20260905140720 13 317 0.0 0.0 0.03 0.20 0.03 95 1016.8
20260905140220 13 225 0.0 0.0 0.03 0.20 0.03 95 1016.7
20260905135720 13 217 0.0 0.0 0.03 0.20 0.03 95 1016.7
20260905135219 13 217 0.0 0.0 0.03 0.20 0.03 94 1016.6
20260905134719 13 217 0.0 0.0 0.03 0.20 0.03 94 1016.7
20260905134220 13 217 0.0 0.0 0.03 0.20 0.03 94 1016.7
20260905133719 13 221 0.0 0.0 0.03 0.20 0.03 94 1016.6
20260905133219 13 221 0.0 0.0 0.03 0.20 0.03 95 1016.6
20260905132725 13 221 0.0 0.0 0.00 0.18 0.00 94 1016.4
20260905132719 13 221 0.0 0.0 0.03 0.20 0.03 94 1016.4
20260905131723 13 173 0.0 0.0 0.00 0.18 0.00 95 1016.6
20260905131719 13 173 0.0 0.0 0.00 0.18 0.00 94 1016.6
20260905130720 13 173 0.0 0.0 0.00 0.18 0.00 95 1016.6
20260905130219 13 173 0.0 0.0 0.00 0.18 0.00 94 1016.6
20260905125720 13 173 0.0 0.0 0.00 0.18 0.00 94 1016.4
20260905125219 13 173 0.0 0.0 0.00 0.18 0.00 94 1016.4
20260905124721 12 173 0.0 0.0 0.00 0.20 0.00 94 1016.3
20260905124228 12 173 0.0 0.0 0.00 0.20 0.00 94 1016.3
20260905124224 12 173 0.0 0.0 0.00 0.20 0.00 94 1016.3
20260905123219 12 173 0.0 0.0 0.00 0.20 0.00 94 1016.3
20260905122720 12 173 0.0 0.0 0.00 0.20 0.00 94 1016.3
20260905122225 12 173 0.0 0.0 0.00 0.20 0.00 94 1016.2
20260905122219 12 173 0.0 0.0 0.00 0.20 0.00 94 1016.3
20260905121835 12 173 0.0 0.0 0.00 0.20 0.00 94 1016.1
20260905121720 12 173 0.0 0.0 0.00 0.20 0.00 94 1016.2
20260905120217 12 173 0.0 0.0 0.00 0.20 0.00 94 1016.1
20260905115717 12 173 0.0 0.0 0.00 0.23 0.00 94 1016.2
20260905115217 12 172 0.0 0.0 0.00 0.23 0.00 94 1016.2
20260905114717 12 172 0.0 0.0 0.00 0.23 0.00 94 1016.2
20260905114218 12 172 0.0 0.0 0.00 0.23 0.00 93 1016.1
20260905113718 12 172 0.0 3.2 0.00 0.23 0.00 94 1016.1
20260905113217 12 172 0.0 3.2 0.00 0.23 0.00 93 1016.1
20260905112717 13 172 0.0 3.2 0.00 0.23 0.00 93 1016.1
20260905112218 13 172 0.0 3.2 0.00 0.23 0.00 93 1016.1
20260905111717 13 172 0.0 0.0 0.00 0.23 0.00 94 1016.0
20260905111219 13 172 0.0 3.2 0.00 0.23 0.00 94 1016.0
20260905111215 13 172 0.0 3.2 0.00 0.23 0.00 94 1016.0
20260905110215 13 172 0.0 3.2 0.00 0.23 0.00 94 1016.0
20260905105715 13 172 0.0 3.2 0.00 0.23 0.00 94 1016.0
20260905105215 13 172 0.0 3.2 0.00 0.23 0.00 93 1016.1
20260905104723 13 172 0.0 3.2 0.00 0.23 0.00 94 1016.1
20260905104716 13 172 0.0 3.2 0.00 0.23 0.00 93 1016.1
20260905104215 13 172 0.0 3.2 0.00 0.23 0.00 94 1016.1
20260905103717 13 172 0.0 3.2 0.00 0.23 0.00 94 1016.1
20260905102715 13 165 0.0 3.2 0.00 0.23 0.00 94 1016.1
20260905102218 13 165 0.0 4.8 0.00 0.23 0.00 94 1016.1
20260905102214 13 165 0.0 4.8 0.00 0.23 0.00 94 1016.1
20260905101214 13 167 0.0 4.8 0.00 0.23 0.00 94 1016.1
20260905100714 13 171 0.0 4.8 0.00 0.23 0.00 94 1016.1
20260905100219 13 140 0.0 3.2 0.00 0.25 0.00 94 1016.1
20260905100213 13 140 0.0 3.2 0.00 0.23 0.00 94 1016.1
20260905095713 13 140 0.0 3.2 0.00 0.23 0.00 94 1016.2
20260905094713 13 140 0.0 3.2 0.00 0.25 0.00 94 1016.1
20260905094212 13 140 0.0 3.2 0.00 0.25 0.00 94 1016.1
20260905093714 13 140 0.0 3.2 0.00 0.25 0.00 94 1016.1
20260905093217 13 140 0.0 3.2 0.00 0.25 0.00 94 1016.0
20260905093211 13 140 0.0 3.2 0.00 0.25 0.00 94 1016.0
20260905092216 13 140 0.0 3.2 0.00 0.25 0.00 94 1015.9
20260905092212 13 140 0.0 3.2 0.00 0.25 0.00 94 1016.0
20260905091217 13 171 0.0 3.2 0.00 0.28 0.00 94 1015.8
20260905091212 13 140 0.0 3.2 0.00 0.25 0.00 94 1015.9
20260905090711 13 171 0.0 3.2 0.00 0.25 0.00 94 1015.9
20260905085711 13 146 0.0 3.2 0.00 0.28 0.00 94 1015.9
20260905085212 13 145 0.0 3.2 0.00 0.30 0.00 94 1015.9
20260905084716 13 145 0.0 3.2 0.00 0.33 0.00 93 1015.9
20260905084710 13 145 0.0 3.2 0.00 0.33 0.00 93 1015.9
20260905083715 13 145 0.0 3.2 0.00 0.41 0.00 93 1015.8
20260905083711 13 145 0.0 3.2 0.00 0.36 0.00 93 1015.9
20260905082709 13 145 0.0 1.6 0.00 0.43 0.00 93 1015.8
20260905082214 13 145 0.0 3.2 0.00 0.46 0.00 93 1015.8
20260905082210 13 145 0.0 3.2 0.00 0.43 0.00 93 1015.8
20260905081208 13 145 0.0 3.2 0.00 0.46 0.00 93 1015.8
20260905080710 13 145 0.0 3.2 0.00 0.46 0.00 93 1015.8
20260905080206 13 145 0.0 3.2 0.00 0.46 0.00 93 1015.7
20260905075705 13 145 0.0 3.2 0.00 0.46 0.00 93 1015.7
20260905075205 13 145 0.0 3.2 0.00 0.46 0.00 93 1015.6
20260905074705 13 115 0.0 3.2 0.00 0.46 0.00 93 1015.6
20260905074204 13 115 0.0 3.2 0.00 0.46 0.00 93 1015.5
20260905073704 13 115 0.0 3.2 0.00 0.46 0.00 93 1015.6
20260905073203 13 121 0.0 3.2 0.00 0.46 0.00 93 1015.5
20260905072702 13 121 0.0 3.2 0.00 0.46 0.00 93 1015.5
20260905072201 13 121 0.0 3.2 0.00 0.46 0.00 93 1015.5
20260905071701 13 126 0.0 3.2 0.00 0.46 0.00 93 1015.5
20260905071200 13 126 0.0 3.2 0.00 0.46 0.00 93 1015.4
20260905070702 13 126 0.0 3.2 0.00 0.46 0.00 93 1015.4
20260905070200 13 126 0.0 3.2 0.00 0.46 0.00 93 1015.4
20260905065700 13 38 0.0 3.2 0.00 0.46 0.46 93 1015.4
20260905065159 13 38 0.0 3.2 0.00 0.46 0.46 94 1015.4
20260905064657 13 39 0.0 3.2 0.00 0.46 0.46 94 1015.4
20260905064157 13 39 0.0 3.2 0.00 0.46 0.46 94 1015.4
20260905063657 13 42 0.0 3.2 0.00 0.46 0.46 94 1015.4
20260905063157 13 42 0.0 3.2 0.00 0.46 0.46 94 1015.3
20260905062655 13 42 0.0 3.2 0.00 0.46 0.46 94 1015.3
20260905062155 13 42 0.0 0.0 0.00 0.46 0.46 94 1015.4
20260905061656 13 42 0.0 3.2 0.00 0.46 0.46 94 1015.3
20260905061155 13 42 0.0 3.2 0.00 0.46 0.46 94 1015.3
20260905060655 13 42 0.0 0.0 0.00 0.46 0.46 94 1015.2
20260905060156 13 42 0.0 0.0 0.00 0.46 0.46 94 1015.3
20260905055656 12 42 0.0 3.2 0.00 0.46 0.46 94 1015.3
20260905055154 12 42 0.0 3.2 0.00 0.46 0.46 94 1015.3
20260905054653 12 42 0.0 0.0 0.00 0.46 0.46 93 1015.2
20260905054153 12 42 0.0 0.0 0.00 0.46 0.46 93 1015.2
20260905053656 12 42 0.0 0.0 0.00 0.46 0.46 92 1015.3
20260905053652 12 42 0.0 0.0 0.00 0.46 0.46 93 1015.3
20260905052657 13 42 0.0 3.2 0.00 0.46 0.46 92 1015.1
20260905052651 13 42 0.0 3.2 0.00 0.46 0.46 92 1015.1
20260905051651 13 59 0.0 3.2 0.00 0.46 0.46 92 1015.1
20260905051152 13 60 0.0 3.2 0.00 0.46 0.46 92 1015.2
20260905050656 13 59 0.0 1.6 0.00 0.46 0.46 92 1015.2
20260905050651 13 60 0.0 1.6 0.00 0.46 0.46 92 1015.1
20260905045652 13 60 0.0 1.6 0.00 0.46 0.46 92 1015.2
20260905045151 13 60 0.0 1.6 0.00 0.46 0.46 91 1015.2
20260905044648 13 60 0.0 1.6 0.00 0.46 0.46 91 1015.2
20260905044149 13 60 0.0 3.2 0.00 0.48 0.46 91 1015.1
20260905043649 13 60 0.0 3.2 0.00 0.48 0.46 91 1015.1
20260905043149 13 60 0.0 3.2 0.00 0.51 0.46 91 1015.0
20260905042649 13 60 0.0 3.2 0.00 0.51 0.46 91 1014.9
20260905042155 13 15 0.0 3.2 0.00 0.53 0.46 92 1014.9
20260905042149 13 40 0.0 3.2 0.00 0.53 0.46 91 1014.9
20260905041149 13 15 0.0 3.2 0.00 0.56 0.46 92 1014.8
20260905040649 13 15 0.0 0.0 0.00 0.56 0.46 92 1014.7
20260905040149 13 15 0.0 1.6 0.00 0.56 0.46 92 1014.7
20260905035647 13 15 0.0 1.6 0.00 0.56 0.46 92 1014.7
20260905035147 13 15 0.0 1.6 0.00 0.58 0.46 92 1014.6
20260905034646 13 15 0.0 3.2 0.00 0.58 0.46 92 1014.6
20260905034148 13 15 0.0 3.2 0.00 0.58 0.46 92 1014.6
20260905033651 13 15 0.0 3.2 0.00 0.58 0.46 92 1014.5
20260905033647 13 15 0.0 3.2 0.00 0.58 0.46 92 1014.6
20260905032647 13 15 0.0 3.2 0.00 0.61 0.46 92 1014.5
20260905032148 13 15 0.0 0.0 0.00 0.61 0.46 92 1014.4
20260905031648 14 15 0.0 0.0 0.00 0.64 0.46 92 1014.3
20260905031147 14 15 0.0 3.2 0.00 0.64 0.46 92 1014.2
20260905030646 14 15 0.0 3.2 0.00 0.64 0.46 92 1014.1
20260905030150 14 15 0.0 3.2 0.00 0.64 0.46 92 1014.2
20260905030145 14 15 0.0 3.2 0.00 0.64 0.46 92 1014.2
20260905025146 14 15 0.0 3.2 0.00 0.64 0.46 91 1014.1
20260905024644 14 15 0.0 0.0 0.00 0.64 0.46 91 1014.1